Weather History for KMMK - March, 2013

Change the Weather History Date:

Thursday, March 14, 2013

  Actual Average (KHVN) Record (KHVN)
Temperature  
Mean Temperature 32 °F -  
Max Temperature 35 °F 42 °F 80 °F (1990)
Min Temperature 28 °F 28 °F 19 °F (2003)
Degree Days  
Heating Degree Days 33    
Moisture  
Dew Point 15 °F    
Average Humidity 50    
Maximum Humidity 82    
Minimum Humidity 35    
Precipitation  
Precipitation 0.00 in - - ()
Sea Level Pressure  
Sea Level Pressure 29.85 in    
Wind  
Wind Speed 9 mph (NW)    
Max Wind Speed 18 mph    
Max Gust Speed 30 mph    
Visibility 10 miles    
Events Snow    
Averages and records for this station are not official NWS values.
T = Trace of Precipitation, MM = Missing Value Source: NWS Daily Summary

Daily Weather History Graph

Daily Weather History Graph

Search for Another Location

Airport or City:

Trip Planner

Search our weather history database for the weather conditions in past years. The results will help you decide how hot, cold, wet, or windy it might be!

Date:

Astronomy

Mar. 14, 2013 Rise Set
Actual Time 7:04 AM EDT 6:57 PM EDT
Civil Twilight 6:36 AM EDT 7:24 PM EDT
Nautical Twilight 6:04 AM EDT 7:56 PM EDT
Astronomical Twilight 5:32 AM EDT 8:29 PM EDT
Moon 8:13 AM EDT (3/14) 10:13 PM EDT (3/14)
Length of Visible Light 12h 47m
Length of Day
11h 52m
Waxing Crescent, 9% of the Moon is Illuminated
Mar 14
Waxing Crescent
Mar 19
First Quarter
Mar 27
Full
Apr 3
Last Quarter
Apr 10
New

Hourly Weather History & Observations

Time (EDT) Temp. Windchill Dew Point Humidity Pressure Visibility Wind Dir Wind Speed Gust Speed Precip Events Conditions
12:53 AM 36.0 °F 33.3 °F 26.1 °F 67% 29.83 in 10.0 mi NW 3.5 mph - N/A   Partly Cloudy
1:53 AM 32.0 °F - 27.0 °F 82% 29.83 in 10.0 mi Calm Calm - N/A   Mostly Cloudy
2:53 AM 35.1 °F 29.3 °F 24.1 °F 64% 29.83 in 9.0 mi NW 6.9 mph - 0.00 in Snow Light Snow
3:53 AM 33.1 °F 25.5 °F 27.0 °F 78% 29.83 in 8.0 mi WNW 9.2 mph - 0.00 in Snow Light Snow
4:53 AM 32.0 °F 23.0 °F 23.0 °F 69% 29.83 in 10.0 mi NW 11.5 mph 19.6 mph 0.00 in   Overcast
5:53 AM 32.0 °F 28.7 °F 21.0 °F 64% 29.83 in 10.0 mi WNW 3.5 mph - N/A   Overcast
6:53 AM 32.0 °F 22.5 °F 12.9 °F 45% 29.84 in 10.0 mi WNW 12.7 mph 19.6 mph N/A   Overcast
7:53 AM 30.0 °F 19.5 °F 10.9 °F 45% 29.86 in 10.0 mi WNW 13.8 mph 19.6 mph N/A   Clear
8:53 AM 30.9 °F 22.8 °F 12.0 °F 46% 29.87 in 10.0 mi WNW 9.2 mph 20.7 mph N/A   Overcast
9:53 AM 28.0 °F 15.7 °F 15.1 °F 58% 29.88 in 10.0 mi West 17.3 mph 26.5 mph 0.00 in   Overcast
10:53 AM 32.0 °F 22.5 °F 10.9 °F 42% 29.87 in 10.0 mi West 12.7 mph 20.7 mph N/A   Partly Cloudy
11:53 AM 33.1 °F 22.6 °F 9.0 °F 37% 29.86 in 10.0 mi NW 16.1 mph 26.5 mph N/A   Partly Cloudy
12:53 PM 32.0 °F 21.2 °F 8.1 °F 37% 29.85 in 10.0 mi WNW 16.1 mph 26.5 mph N/A   Mostly Cloudy
1:53 PM 33.1 °F 21.9 °F 10.9 °F 40% 29.84 in 10.0 mi NW 18.4 mph 26.5 mph N/A   Overcast
2:53 PM 32.0 °F 21.2 °F 10.0 °F 40% 29.83 in 10.0 mi NW 16.1 mph 29.9 mph N/A   Overcast
3:53 PM 34.0 °F 23.4 °F 9.0 °F 35% 29.83 in 10.0 mi WNW 17.3 mph 28.8 mph N/A   Mostly Cloudy
4:53 PM 35.1 °F 25.2 °F 10.0 °F 35% 29.83 in 10.0 mi NW 16.1 mph 27.6 mph N/A   Clear
5:53 PM 35.1 °F 24.5 °F 10.9 °F 37% 29.84 in 10.0 mi NW 18.4 mph 24.2 mph N/A   Mostly Cloudy
6:53 PM 32.0 °F 23.0 °F 12.0 °F 44% 29.86 in 10.0 mi NW 11.5 mph 27.6 mph N/A   Mostly Cloudy
7:53 PM 30.9 °F 23.5 °F 15.1 °F 52% 29.88 in 10.0 mi NNW 8.1 mph 25.3 mph N/A   Mostly Cloudy
8:53 PM 30.0 °F 19.5 °F 12.9 °F 49% 29.89 in 10.0 mi NNW 13.8 mph 21.9 mph N/A   Overcast
9:53 PM 30.0 °F 21.1 °F 10.9 °F 45% 29.90 in 10.0 mi NNW 10.4 mph - N/A   Overcast
10:53 PM 30.0 °F 21.1 °F 12.0 °F 47% 29.91 in 10.0 mi NNW 10.4 mph - N/A   Overcast
11:53 PM 30.0 °F 23.2 °F 10.9 °F 45% 29.90 in 10.0 mi NW 6.9 mph - N/A   Mostly Cloudy